Find Starlink 5131

NORAD ID: 53996 Int'l Des: 2022-125 Owner: SPXS Country: US Constellation: starlink operational
LEOCIRCULAR

リアルタイム位置

3D地球を読み込み中...

Starlink 5131について

説明を読み込み中...

次回通過

Passes for default location (London). Set your location on the main map for personalized predictions.

高度履歴

Loading altitude history...

軌道要素

1 53996U 22125AJ 26107.10124774 .00000531 00000-0 51453-4 0 9997
2 53996 53.2184 41.5227 0001594 87.9891 272.1283 15.08839765195269
Epoch: Apr 17, 2026 • Age: 17 hours

現在のステータス

高度 554.2 km
速度 7.58 km/s
衛星直下点 -41.02°S, 143.09°W
打ち上げ日 Oct 5, 2022
運用期間 3.5 years
タイプ internet

技術仕様

分類 Payload
質量 305.00 kg
乾燥質量 290.00 kg
総質量 305.00 kg
長さ 0.20 m
直径 2.80 m
スパン 9.00 m
形状 Box + pan
製造者 SPXS
バスタイプ Starlink
フェーズステータス In Orbit
所有者/国 SPXS/US

Most Searched